When you browse on this site, cookies collect data to enhance your experience and personalize the content and advertising you see.
Visit our Privacy Policy to learn more. By continuing to use the site, you agree to this use of cookies and data.
  • In Österreich
  • Länderverzeichnis
  • Für 7 Tage
  • Wassertemperatur
  • Wetterkarte
  • News
  • Widgets
  • user-avatar
    Anmelden

    Stündliche Wetter Kipungo

    Heute, 15 Dezember, Sonntag

    Zeit Temperatur Niederschläge Wind Luftdruck Luftfeuchtigkeit
    00:00 +22°C° 0.1 mm 1 m/S 653 mmHg 66%
    01:00 +21°C° 0 mm 1 m/S 653 mmHg 74%
    02:00 +21°C° 0.3 mm 1 m/S 653 mmHg 76%
    03:00 +20°C° 0.3 mm 1 m/S 652 mmHg 78%
    04:00 +20°C° 0.3 mm 1 m/S 652 mmHg 80%
    05:00 +21°C° 0.1 mm 1 m/S 653 mmHg 78%
    06:00 +22°C° 0.1 mm 1 m/S 653 mmHg 77%
    07:00 +23°C° 0 mm 1 m/S 654 mmHg 74%
    08:00 +25°C° 0 mm 1 m/S 654 mmHg 65%
    09:00 +28°C° 0 mm 1 m/S 655 mmHg 56%
    10:00 +30°C° 0 mm 2 m/S 655 mmHg 46%
    11:00 +31°C° 0 mm 2 m/S 655 mmHg 44%
    12:00 +31°C° 0 mm 2 m/S 654 mmHg 41%
    13:00 +32°C° 0 mm 2 m/S 654 mmHg 38%
    14:00 +32°C° 0 mm 2 m/S 653 mmHg 40%
    15:00 +31°C° 0 mm 2 m/S 652 mmHg 42%
    16:00 +31°C° 0 mm 1 m/S 652 mmHg 44%
    17:00 +29°C° 0 mm 1 m/S 652 mmHg 49%
    18:00 +27°C° 0 mm 1 m/S 652 mmHg 53%
    19:00 +26°C° 0 mm 1 m/S 652 mmHg 58%
    20:00 +24°C° 0.2 mm 1 m/S 652 mmHg 67%
    21:00 +23°C° 0.2 mm 1 m/S 652 mmHg 76%
    22:00 +20°C° 0.2 mm 2 m/S 653 mmHg 85%
    23:00 +21°C° 0 mm 1 m/S 652 mmHg 88%

    Morgen, 16 Dezember, Montag

    Zeit Temperatur Niederschläge Wind Luftdruck Luftfeuchtigkeit
    00:00 +21°C° 0 mm 1 m/S 652 mmHg 91%
    01:00 +20°C° 0 mm 1 m/S 652 mmHg 94%
    02:00 +20°C° 0.1 mm 1 m/S 652 mmHg 95%
    03:00 +20°C° 0.1 mm 1 m/S 652 mmHg 95%
    04:00 +18°C° 0.1 mm 0 m/S 651 mmHg 96%
    05:00 +20°C° 0.4 mm 1 m/S 652 mmHg 93%
    06:00 +21°C° 0.4 mm 1 m/S 653 mmHg 90%
    07:00 +22°C° 0.4 mm 1 m/S 653 mmHg 87%
    08:00 +25°C° 0.2 mm 1 m/S 654 mmHg 75%
    09:00 +27°C° 0.2 mm 1 m/S 654 mmHg 64%
    10:00 +30°C° 0.2 mm 1 m/S 655 mmHg 52%
    11:00 +30°C° 0.6 mm 1 m/S 655 mmHg 51%
    12:00 +30°C° 0.6 mm 2 m/S 654 mmHg 49%
    13:00 +30°C° 0.6 mm 3 m/S 653 mmHg 47%
    14:00 +29°C° 0.5 mm 3 m/S 653 mmHg 52%
    15:00 +28°C° 0.5 mm 2 m/S 653 mmHg 56%
    16:00 +27°C° 0.5 mm 2 m/S 652 mmHg 61%
    17:00 +25°C° 0.6 mm 2 m/S 652 mmHg 70%
    18:00 +23°C° 0.6 mm 2 m/S 652 mmHg 79%
    19:00 +21°C° 0.6 mm 1 m/S 652 mmHg 89%
    20:00 +21°C° 0 mm 1 m/S 652 mmHg 89%
    21:00 +21°C° 0 mm 1 m/S 652 mmHg 89%
    22:00 +21°C° 0 mm 1 m/S 653 mmHg 90%
    23:00 +20°C° 0 mm 1 m/S 652 mmHg 92%

    übermorgen, 17 Dezember, Dienstag

    Zeit Temperatur Niederschläge Wind Luftdruck Luftfeuchtigkeit
    00:00 +20°C° 0 mm 1 m/S 652 mmHg 93%
    01:00 +19°C° 0 mm 1 m/S 651 mmHg 95%
    02:00 +17°C° 0 mm 0 m/S 651 mmHg 96%
    03:00 +17°C° 0 mm 0 m/S 651 mmHg 96%
    04:00 +17°C° 0 mm 0 m/S 651 mmHg 97%
    05:00 +18°C° 0 mm 0 m/S 652 mmHg 93%
    06:00 +18°C° 0 mm 0 m/S 652 mmHg 89%
    07:00 +19°C° 0 mm 0 m/S 653 mmHg 85%
    08:00 +23°C° 0 mm 1 m/S 653 mmHg 76%
    09:00 +25°C° 0 mm 1 m/S 654 mmHg 67%
    10:00 +27°C° 0 mm 2 m/S 654 mmHg 58%
    11:00 +28°C° 0.1 mm 2 m/S 654 mmHg 53%
    12:00 +29°C° 0.1 mm 3 m/S 653 mmHg 48%
    13:00 +30°C° 0.1 mm 3 m/S 653 mmHg 44%
    14:00 +31°C° 0 mm 3 m/S 653 mmHg 43%
    15:00 +31°C° 0 mm 2 m/S 652 mmHg 42%
    16:00 +31°C° 0 mm 2 m/S 652 mmHg 41%
    17:00 +29°C° 0.1 mm 2 m/S 652 mmHg 49%
    18:00 +27°C° 0.1 mm 2 m/S 652 mmHg 56%
    19:00 +25°C° 0.1 mm 1 m/S 652 mmHg 64%
    20:00 +24°C° 0.6 mm 1 m/S 652 mmHg 72%
    21:00 +22°C° 0.6 mm 1 m/S 652 mmHg 81%
    22:00 +21°C° 0.6 mm 1 m/S 653 mmHg 90%
    23:00 +20°C° 0.8 mm 2 m/S 652 mmHg 91%

    18 Dezember, Mittwoch

    Zeit Temperatur Niederschläge Wind Luftdruck Luftfeuchtigkeit
    00:00 +19°C° 0.8 mm 2 m/S 652 mmHg 93%
    01:00 +19°C° 0.8 mm 2 m/S 652 mmHg 95%
    02:00 +19°C° 0.4 mm 2 m/S 652 mmHg 96%
    03:00 +20°C° 0.4 mm 1 m/S 652 mmHg 96%
    04:00 +20°C° 0.4 mm 1 m/S 651 mmHg 96%
    05:00 +20°C° 0.2 mm 1 m/S 652 mmHg 94%
    06:00 +21°C° 0.2 mm 1 m/S 652 mmHg 91%
    07:00 +21°C° 0.2 mm 1 m/S 653 mmHg 88%
    08:00 +23°C° 0.2 mm 1 m/S 653 mmHg 80%
    09:00 +26°C° 0.2 mm 1 m/S 654 mmHg 71%
    10:00 +28°C° 0.2 mm 2 m/S 654 mmHg 62%
    11:00 +29°C° 0.5 mm 2 m/S 654 mmHg 57%
    12:00 +30°C° 0.5 mm 3 m/S 653 mmHg 51%
    13:00 +31°C° 0.5 mm 3 m/S 653 mmHg 46%
    14:00 +31°C° 0.2 mm 3 m/S 653 mmHg 45%
    15:00 +31°C° 0.2 mm 3 m/S 652 mmHg 45%
    16:00 +31°C° 0.2 mm 2 m/S 652 mmHg 45%
    17:00 +28°C° 0.6 mm 2 m/S 652 mmHg 58%
    18:00 +25°C° 0.6 mm 3 m/S 652 mmHg 71%
    19:00 +22°C° 0.6 mm 3 m/S 651 mmHg 84%
    20:00 +21°C° 0.9 mm 2 m/S 652 mmHg 87%
    21:00 +21°C° 0.9 mm 2 m/S 652 mmHg 90%
    22:00 +21°C° 0.9 mm 1 m/S 653 mmHg 93%
    23:00 +21°C° 0 mm 1 m/S 652 mmHg 94%

    19 Dezember, Donnerstag

    Zeit Temperatur Niederschläge Wind Luftdruck Luftfeuchtigkeit
    00:00 +20°C° 0 mm 1 m/S 652 mmHg 95%
    01:00 +20°C° 0 mm 1 m/S 652 mmHg 96%
    02:00 +20°C° 0 mm 1 m/S 652 mmHg 96%
    03:00 +20°C° 0 mm 1 m/S 652 mmHg 96%
    04:00 +20°C° 0 mm 1 m/S 652 mmHg 96%
    05:00 +21°C° 0 mm 1 m/S 652 mmHg 93%
    06:00 +22°C° 0.1 mm 1 m/S 653 mmHg 90%
    07:00 +22°C° 0.1 mm 1 m/S 653 mmHg 87%
    08:00 +25°C° 0.1 mm 1 m/S 654 mmHg 76%
    09:00 +27°C° 0.1 mm 1 m/S 654 mmHg 66%
    10:00 +30°C° 0.1 mm 1 m/S 655 mmHg 56%
    11:00 +30°C° 1 mm 1 m/S 654 mmHg 54%
    12:00 +30°C° 1 mm 2 m/S 653 mmHg 52%
    13:00 +30°C° 1 mm 2 m/S 653 mmHg 50%
    14:00 +30°C° 0.1 mm 2 m/S 652 mmHg 50%
    15:00 +30°C° 0.1 mm 2 m/S 652 mmHg 49%
    16:00 +30°C° 0.1 mm 2 m/S 652 mmHg 48%
    17:00 +28°C° 0.4 mm 2 m/S 652 mmHg 60%
    18:00 +25°C° 0.4 mm 3 m/S 651 mmHg 71%
    19:00 +22°C° 0.4 mm 3 m/S 651 mmHg 82%
    20:00 +21°C° 0.3 mm 3 m/S 652 mmHg 85%
    21:00 +21°C° 0.3 mm 3 m/S 653 mmHg 88%
    22:00 +20°C° 0.3 mm 3 m/S 653 mmHg 91%
    23:00 +20°C° 0.5 mm 3 m/S 653 mmHg 92%

    20 Dezember, Freitag

    Zeit Temperatur Niederschläge Wind Luftdruck Luftfeuchtigkeit
    00:00 +20°C° 0.5 mm 3 m/S 653 mmHg 93%
    01:00 +19°C° 0.5 mm 3 m/S 652 mmHg 94%
    02:00 +19°C° 0.5 mm 2 m/S 652 mmHg 95%
    03:00 +19°C° 0.5 mm 2 m/S 652 mmHg 95%
    04:00 +20°C° 0.5 mm 1 m/S 652 mmHg 96%
    05:00 +20°C° 0.3 mm 1 m/S 653 mmHg 93%
    06:00 +20°C° 0.3 mm 1 m/S 653 mmHg 91%
    07:00 +21°C° 0.3 mm 1 m/S 654 mmHg 88%
    08:00 +23°C° 0.7 mm 1 m/S 654 mmHg 80%
    09:00 +25°C° 0.7 mm 1 m/S 655 mmHg 71%
    10:00 +27°C° 0.7 mm 1 m/S 656 mmHg 63%
    11:00 +28°C° 0.3 mm 1 m/S 655 mmHg 58%
    12:00 +30°C° 0.3 mm 1 m/S 655 mmHg 53%
    13:00 +31°C° 0.3 mm 1 m/S 654 mmHg 48%
    14:00 +30°C° 0.2 mm 1 m/S 654 mmHg 49%
    15:00 +30°C° 0.2 mm 2 m/S 653 mmHg 50%
    16:00 +30°C° 0.2 mm 2 m/S 653 mmHg 50%
    17:00 +28°C° 0.6 mm 2 m/S 652 mmHg 59%
    18:00 +26°C° 0.6 mm 2 m/S 652 mmHg 68%
    19:00 +23°C° 0.6 mm 2 m/S 652 mmHg 77%
    20:00 +23°C° 2.7 mm 2 m/S 653 mmHg 82%
    21:00 +21°C° 2.7 mm 2 m/S 653 mmHg 87%
    22:00 +20°C° 2.7 mm 2 m/S 654 mmHg 92%
    23:00 +20°C° 1.9 mm 2 m/S 653 mmHg 93%
    Mehr zeigen